USTRANSCOM 7626


KSUU
Travis Air Force Base
Fairfield, California, US
PHNL
Daniel K Inouye International Airport
Honolulu, Hawaii, US

Activity Log

Date Flight Route Aircraft Duration
03/12/2019 CMB826 WAPEX PYE BEBOP R464 BITTA KAENA2 B752 6h 00m

Route Details

Aircraft Information
Primary: Boeing 757-200SF
Backup: Not Available
Route Data
Distance: 2117nm
Sched. Duration: 5h 29m
Avg. Duration: 6h 00m (+71m)
Times Flown: 1
Recm'd Route: BESSA PYE BEBOP R464 BITTA
Planned Altitude: 32,000ft
Origin Wx: KSUU 221658Z AUTO 02013G17KT 10SM CLR 22/M04 A2987 RMK AO2 PK WND 01026/55 SLP121 T02221040 $
Dest. Wx: PHNL 221653Z 01003KT 10SM FEW025 FEW050 BKN150 23/21 A2991 RMK AO2 SLP128 T02330211
Notes: USTRANSCOM CONTRACT FLIGHT

Financial History
Total Freight: 59,204lbs
Average Load: 59,204lbs/flt
Fuel Used: 45,121lbs
Avg. Fuel Used: 45,121lbs/flt
Fuel Expense: $41,511
Avg. Fuel Expense: $41,511
Avg. Fuel Cost: $0.92/lbs
Total Gross Income: $203,070
Pilot Pay: $229
Total Expenses: $21,984
Total Revenue: $138,141
Average Revenue: $203,069.72